Regional Weather Roundup
Issued by NWS

Home | Current Version | Previous Version | Text Only | Print | Product List | Glossary On
Versions: 1 2 3 4 5 6 7 8 9 10 11 12 13 14 15 16 17 18 19 20 21 22 23 24 25 26 27 28 29 30 31 32 33 34 35 36 37 38 39 40 41 42 43 44 45 46 47 48 49 50
000
ASUS44 KFWD 161515
RWRTX
NORTH TEXAS HOURLY WEATHER ROUNDUP
NATIONAL WEATHER SERVICE FORT WORTH TX
1000 AM CDT WED APR 16 2014

NOTE: "FAIR" INDICATES FEW OR NO CLOUDS BELOW 12,000 FEET WITH NO
SIGNIFICANT WEATHER AND/OR OBSTRUCTIONS TO VISIBILITY.

TXZ118-119-161600-
DALLAS/FORT WORTH METROPLEX

CITY           SKY/WX    TMP DP  RH WIND       PRES   REMARKS
DFW AIRPORT    CLOUDY    56  32  40 S18G28    30.10F
DALLAS LOVE    PTSUNNY   55  31  39 S23G30    30.13F
FTW MEACHAM    SUNNY     56  34  43 S18G25    30.10S
DAL-EXECUTIVE  MOSUNNY   54  33  45 SE23      30.11F
FTW-ALLIANCE   PTSUNNY   53  32  44 S21G28    30.10S
FTW-NAS-JRB    PTSUNNY   57  29  34 SE15G25   30.15S
FTW-SPINKS     SUNNY     55  32  41 SE14G25   30.12F
ARLINGTON      MOSUNNY   55  32  41 S18G31    30.11F
GRAND PRAIRIE  SUNNY     55  30  38 SE17G29   30.14F
ADDISON        PTSUNNY   54  30  40 S21G30    30.13F
MESQUITE       SUNNY     52  36  54 SE17G25   30.16S
LANCASTER      MOSUNNY   52  34  49 SE13      30.15F
$$

TXZ091>094-102>105-117-120-121-131>134-161600-
NORTH CENTRAL TEXAS

CITY           SKY/WX    TMP DP  RH WIND       PRES   REMARKS
SHRMAN/DENISON MOSUNNY   55  32  41 S22G30    30.11F
GAINESVILLE    MOSUNNY   53  32  44 S26G32    30.09F
BOWIE          SUNNY     55  31  40 SE18G29   30.03S
BRIDGEPORT     SUNNY     55  27  33 S16G30    30.07F
DECATUR        MOSUNNY   54  30  40 S24G32    30.06F
DENTON         MOSUNNY   54  31  41 S26G33    30.10F
MCKINNEY       MOSUNNY   53  35  50 S22G32    30.13S
GREENVILLE       N/A     54  34  47 SE15G24   30.16S
ROCKWALL       MOSUNNY   55  36  49 SE13G21   30.14S HAZE
TERRELL        MOSUNNY   53  34  48 S22       30.16F
WAXAHACHIE     MOSUNNY   53  34  48 S17       30.14F
CLEBURNE       MOSUNNY   54  34  47 S21G26    30.12F
GRANBURY       MOSUNNY   57  31  37 SE23      30.10F
$$

TXZ083>090-098>101-113>116-127>130-139>142-154-155-161600-
WESTERN NORTH TEXAS

CITY           SKY/WX    TMP DP  RH WIND       PRES   REMARKS
WICHITA FALLS  MOSUNNY   55  26  32 S22G33    29.98F
WF-KICKAPOO    MOSUNNY   55  26  32 S20G26    30.01F
VERNON         SUNNY     58  22  25 S23G30    29.95F
ABILENE        SUNNY     55  20  25 S28G39    29.96S
ABILENE-DYESS  SUNNY     56  20  24 S30G43    29.93S
BRECKENRIDGE   SUNNY     58  25  27 S18G26    30.02R
GRAHAM         SUNNY     56  26  31 SE17G26   30.00F
MINERAL WELLS  SUNNY     54  29  38 S24G33    30.05F
STEPHENVILLE   MOSUNNY   53  31  43 S15G28    30.09F
COMANCHE       MOSUNNY   53  28  38 S21G30    30.05F
BROWNWOOD      MOSUNNY   54  28  37 S17G29    30.04F
COLEMAN        MOSUNNY   54  29  38 S16G23    30.03S
BRADY            N/A     54  30  40 SE20      30.02S
$$

TXZ143>147-156>162-174-175-161600-
CENTRAL TEXAS

CITY           SKY/WX    TMP DP  RH WIND       PRES   REMARKS
WACO           PTSUNNY   54  38  54 SE15      30.13F
WACO-TSTC      SUNNY     55  39  54 S10       30.14F
WACO-MCGREGOR  MOSUNNY   54  36  50 S21G28    30.14F
HILLSBORO      MOSUNNY   55  36  49 SE21      30.13S
CORSICANA      PTSUNNY   54  36  50 SE16      30.17F
MEXIA          PTSUNNY   53  37  53 SE9G18    30.15F
HEARNE         PTSUNNY   55  39  56 SE7       30.16F
CAMERON        PTSUNNY   56  36  47 S9        30.15S
TEMPLE           N/A    N/A N/A N/A MISG        N/A
KILLEEN        MOSUNNY   54  34  47 SE14      30.10S
KILLEEN-SKYLRK PTSUNNY   52  34  50 SE15      30.09F
FORT HOOD      PTSUNNY   55  35  47 SE10      30.11F
GATESVILLE     MOSUNNY   54  32  43 S13G21    30.13F
HAMILTON       MOSUNNY   55  29  37 S20G30    30.09S
LAMPASAS       MOSUNNY   55  35  46 S15G23    30.09R
$$

TXZ095>097-106>112-122>126-135>138-148>153-164>167-161600-
EAST TEXAS

CITY           SKY/WX    TMP DP  RH WIND       PRES   REMARKS
PARIS          PTSUNNY   50  36  57 S16G23    30.18F
SULPHUR SPRNGS MOSUNNY   52  35  52 S16       30.20S
CLARKSVILLE    MOSUNNY   51  34  52 SE12      30.20S
MOUNT PLEASANT SUNNY     52  35  52 SE13      30.22S
GILMER         SUNNY     52  34  50 SE14G20   30.23R
MINEOLA        MOSUNNY   52  37  58 S9        30.20S
TYLER          SUNNY     52  36  54 SE14      30.20R
LONGVIEW       SUNNY     52  33  48 SE16      30.21S
MARSHALL       SUNNY     51  33  51 S10       30.25S
ATHENS         MOSUNNY   52  34  50 SE10      30.18S
PALESTINE      SUNNY     54  33  45 SE9       30.22S
JACKSONVILLE   SUNNY     49  32  51 S12G17    30.22S
HENDERSON      SUNNY     52  33  47 S12       30.23S
NACOGDOCHES    SUNNY     52  37  58 SE8       30.24R
LUFKIN         SUNNY     54  35  48 SE9       30.23R
$$

SUPPLEMENTAL OBSERVATIONS (CENTRAL)

CITY           SKY/WX    TMP DP  RH WIND       PRES   REMARKS
LAKE TEXOMA      N/A     52  28  40 S13         N/A
CADDO GRASSLND   N/A     52  34  50 S13G24      N/A
PAT MAYSE LAKE   N/A     48  34  57 SE16        N/A
GREENVILLE       N/A     54  34  47 S13G21      N/A
CEDAR HILL       N/A     55  32  41 S17G25      N/A
ATHENS           N/A     54  34  47 S13G21      N/A
LAKE LIMESTONE   N/A     57  34  41 SE10        N/A
MCGREGOR         N/A     57  32  38 S17         N/A
$$

SUPPLEMENTAL OBSERVATIONS (WEST)

CITY           SKY/WX    TMP DP  RH WIND       PRES   REMARKS
MILLERS CREEK    N/A     57  25  28 S21G29      N/A
LBJ GRASSLAND    N/A     57  32  38 S17G26      N/A
GRANBURY         N/A     57  32  38 S22G33      N/A
COMANCHE         N/A     55  28  35 S22G30      N/A
HAMBY            N/A     57  23  26 S26G36      N/A
$$

SUPPLEMENTAL OBSERVATIONS (EAST)

CITY           SKY/WX    TMP DP  RH WIND       PRES   REMARKS
CLARKSVILLE      N/A     52  36  54 SE12        N/A
TEXARKANA        N/A     54  32  43 SE8         N/A
CADDO LAKE       N/A     54  32  43 SE6         N/A
GILMER           N/A     54  34  47 S14         N/A
HENDERSON        N/A     52  32  46 S12         N/A
LUFKIN           N/A     54  36  50 MISG        N/A
N SABINE NF      N/A     54  34  47 MISG        N/A
S SABINE NF      N/A     54  34  47 S6          N/A
$$

SUPPLEMENTAL OBSERVATIONS ARE A COLLECTION OF AUTOMATED INSTRUMENTS
THAT ARE MAINTAINED BY A VARIETY OF FEDERAL AND STATE AGENCIES.
CERTAIN ELEMENTS...SUCH AS HUMIDITY VALUES AND SUSTAINED WIND
SPEEDS...MAY BE APPROXIMATED.




USA.gov is the U.S. government's official web portal to all federal, state and local government web resources and services.